www.pogodaiklimat.ru

Погода и климат >> Архив погоды >> Россия >> Ямало-Ненецкий АО >> Надым


АРХИВ ПОГОДЫ в Надыме

Время (UTC), дата Ветер
(напр.,м/с)
 
Видим.   Явления Облачность Т
(С)
Тd
(С)
f
(%)
Тe
(С)
Тes
(С)
Комфортность P
(гПа)
Po
(гПа)
Тmin
(С)
Tmax
(С)
R
(мм)
R24
(мм)
S
(см)
09 11.06 В 2 10 км слаб. дождь 10/6 600 м
[Sc As op]
+5.1 +2.1 81 +3 +3 1006.7 1005.0
12 11.06 В 3 10 км слаб. дождь 10/6 300 м
[Sc As op]
+5.1 +3.6 90 +2 +2 1005.7 1004.0
15 11.06 В 2 4000 м слаб. морось {дождь} 10/10 200 м
[St]
+5.2 +4.2 93 +2 +2 1004.9 1003.2 +6.0 0.8
18 11.06 ЮВ 2 4000 м слаб. морось {дождь} 10/10 100 м
[St]
+5.4 +4.7 95 +3 +3 1003.3 1001.6
21 11.06 Ю 1 2000 м дымка 10/10 100 м
[St]
+5.2 +4.8 97 +4 +4 1001.8 1000.0
00 12.06 ЮВ 1 4000 м дымка 10/10 100 м
[St]
+5.5 +5.1 97 +4 +4 1000.5 998.8
03 12.06 З 1 10 км 10/10 180 м
[St]
+7.3 +6.4 94 +6 +6 999.4 997.7 +5.1 0.0
06 12.06 С 1 10 км в посл. час дождь 10/10 600 м
[Sc]
+8.8 +5.9 82 +8 +8 998.6 996.9
09 12.06 СВ 1 10 км 10/10 750 м
[Sc]
+10.8 +4.9 67 +11 +11 998.2 996.5
12 12.06 С 3 10 км 10/10 1000 м
[Sc]
+10.6 +4.1 64 +9 +9 997.6 995.9
15 12.06 СЗ 3 10 км 9/0
[Ac trans]
+7.8 +2.6 70 +5 +6 996.8 995.1 +11.1 0.0
18 12.06 СЗ 4 10 км 9/0
[Ac trans]
+5.1 +0.4 72 +1 +1 996.1 994.4
21 12.06 СЗ 3
{10}
10 км 9/0
[Ac trans]
+3.2 -0.4 77 -1 -1 994.7 993.0
00 13.06 СЗ 3 10 км 9/0
[Ac trans]
+3.2 -1.8 70 -0 0 992.8 991.1
03 13.06 СЗ 5-11
{11}
10 км 8/5 1000 м
[Sc Ac trans Ci fib]
+5.6 -3.3 53 +2 +3 991.5 989.8 +3.0
06 13.06 СЗ 5-11
{11}
4000 м слаб. ливневой дождь со снегом 9/6 300 м
[Cb cap Ac trans]
+3.0 +0.4 83 -2 -1 991.7 990.0 +3.0
09 13.06 З 4-10
{11}
10 км {ливн. осадки} 10/10 1000 м
[Sc]
+5.8 -4.5 48 +3 +3 992.7 991.0
12 13.06 СЗ 5
{11}
10 км в посл. час снег {ливн. осадки} 10/10 600 м
[Sc]
+2.5 -1.2 77 -3 -3 994.4 991.9
15 13.06 З 2
{10}
10 км в посл. час ливневой снег 10/10 900 м
[Sc]
+3.5 -2.8 63 +1 +1 993.0 991.3 0.0
18 13.06 З 2
{10}
10 км {ливн. осадки, снег} 9/8 900 м
[Cb cap Ac trans]
+1.5 -2.6 74 -2 -2 993.0 991.3
21 13.06 З 2 10 км {ливн. осадки} 8/5 750 м
[Cb cap Ac trans]
-0.8 -2.4 89 -5 -5 992.3 990.5
00 14.06 ЮЗ 3 10 км {ливн. осадки} 10/6 500 м
[Cb cap Ac und]
+0.3 -2.8 80 -4 -4 991.0 989.3
03 14.06 ЮЗ 3 10 км слаб. ливневой снег 10/10 360 м
[Sc]
+0.5 -1.6 86 -4 -4 990.2 988.5 -0.9 0.4
06 14.06 ЮЗ 3
{10}
2000 м ливневой снег 10/10 210 м
[Cb cap]
+1.3 +0.3 93 -3 -3 989.9 988.2
09 14.06 ЮЗ 3
{10}
500 м ливневой снег 10/10 120 м
[Cb cap]
+0.3 -0.3 96 -5 -5 990.0 988.3
12 14.06 З 2 2000 м ливневой снег 10/10 120 м
[Cb cap]
+1.4 +0.7 95 -2 -2 993.3 991.6
15 14.06 З 4
{11}
10 км слаб. ливневой дождь 10/10 360 м
[Sc]
+2.0 +0.6 90 -3 -3 996.1 994.4 +2.1 11
18 14.06 З 3
{13}
10 км слаб. ливневой снег 10/6 300 м
[Cb cap Ac und]
+0.7 -0.4 92 -4 -4 997.7 995.9
21 14.06 З 2 10 км {ливн. осадки} 10/0
[Ac trans Ci fib]
+0.4 -1.0 90 -3 -3 998.6 996.9
00 15.06 ЮЗ 1 10 км {ливн. осадки} 6/0
[Ac trans Ci fib]
+2.1 -0.5 83 0 +2 999.8 998.1
03 15.06 ЮЗ 2 10 км 10/10 800 м
[Sc]
+5.7 +0.3 68 +4 +4 1000.3 998.5 +0.1 0.0
06 15.06 ЮЗ 3 10 км 9/9 1000 м
[Sc]
+7.4 +0.1 60 +5 +6 1001.1 999.4
09 15.06 ЮЗ 2 10 км слаб. ливневой дождь 10/4 600 м
[Cb cap Ac trans]
+9.6 +2.1 59 +8 +11 1001.2 999.5
12 15.06 ЮЗ 3 10 км {ливн. осадки} 10/3 1000 м
[Cb cap Ac trans]
+10.8 +0.3 48 +9 +10 1001.2 999.5
15 15.06 Ю 2 10 км 9/0
[Ac und]
+7.7 +3.8 76 +6 +6 1001.7 1000.0 +11.7 0.0
18 15.06 ЮВ 2 10 км {ливн. осадки} 8/5 1000 м
[Cb cap Ac trans]
+5.7 +4.3 91 +3 +3 1001.3 999.6
21 15.06 ЮВ 2 10 км в посл. час ливневой дождь 9/5 600 м
[Cb cap Ac trans]
+5.2 +3.9 91 +3 +3 1000.4 998.7
00 16.06 ЮВ 3 10 км {ливн. осадки} 9/8 900 м
[Sc Ac trans]
+6.8 +4.3 84 +4 +4 999.9 998.2
03 16.06 Ю 3 10 км 9/3 600 м
[Sc Ac trans]
+10.6 +4.2 65 +9 +11 999.5 997.8 +4.9 1
06 16.06 Ю 3
{11}
10 км 9/6 1000 м
[Cu Sc Ac trans]
+12.6 +0.8 44 +12 +14 998.6 996.9
09 16.06 ЮЗ 3
{10}
10 км {ливн. осадки} 9/5 1000 м
[Sc Ac trans]
+13.5 +3.1 49 +13 +15 998.6 996.9
12 16.06 З 1 10 км {ливн. осадки} 8/4 600 м
[Cb cap Ac trans]
+11.5 +5.9 68 +12 +14 999.0 997.3
15 16.06 В 1 10 км слаб. ливневой дождь 9/4 1000 м
[Cb cap Ac trans]
+10.5 +6.0 74 +10 +11 999.2 997.5 +14.3 0.0
18 16.06 В 1 10 км в посл. час ливневой дождь 8/3 1000 м
[Cb cap Ac trans]
+7.8 +6.9 94 +7 +7 998.9 997.2
21 16.06 ЮВ 1 10 км 8/0
[Ac trans]
+7.6 +6.6 93 +7 +7 997.6 995.9
00 17.06 штиль 0 10 км в посл. час ливневой дождь 9/4 1000 м
[Cb cap Ac trans]
+7.6 +6.8 95 +7 +7 996.8 995.1
03 17.06 штиль 0 10 км слаб. ливневой дождь 10/10 400 м
[Sc]
+8.7 +7.2 90 +8 +8 996.7 995.0 +7.2 1
06 17.06 Ю 1 10 км {ливн. осадки} 9/9 750 м
[Sc]
+12.4 +5.6 63 +13 +14 996.4 994.8
09 17.06 Ю 2 10 км 8/8 1200 м
[Sc]
+14.3 +1.6 42 +14 +16 996.6 995.0
12 17.06 Ю 2 10 км 9/4 1500 м
[Sc Ac trans]
+16.3 -0.8 31 +17 +18 996.8 995.2
15 17.06 З 1 10 км 10/0
[Ac trans Ci fib]
+14.9 +1.3 40 +16 +16 997.1 995.4 +17.6 0.0
18 17.06 СЗ 1 10 км {метель} 6/0
[Ac trans]
+10.3 +5.4 72 +10 +10 997.5 995.8
21 17.06 З 1 10 км 8/0
[Ac trans]
+7.1 +3.5 78 +6 +6 997.0 995.3
00 18.06 З 1 10 км 8/0
[Ac trans]
+8.0 +2.9 70 +7 +8 996.6 994.9
03 18.06 СЗ 2 10 км 6/0
[Ac trans]
+12.1 +0.4 45 +12 +16 996.2 994.5 +6.4

 

Местоположение метеостанции Надым (Ямало-Ненецкий АО, Россия): широта 65.47 долгота 72.67 высота над уровнем моря 19 м.

В архиве по умолчанию представлена погода в Надыме за последнюю неделю. Архивные данные за месяц целиком и за предыдущие месяцы, начиная с января 2011 года, Вы можете получить, выбрав интересующий диапазон дат из раскрывающегося списка и нажав кнопку "Ввод!".


*Определитесь, кто Вы:
робот инопланетянин человек

Внимание! Время в таблицах - всемирное. Для получения местного времени необходимо прибавить поправку, которая равна 5 ч.

Смотрите также архив погоды в соседних городах и на ближайших метеорологических станциях:

Погода в Пангодах (Ямало-Ненецкий АО, Россия) (93 км)
Погода в Лонг-Югане (Ямало-Ненецкий АО, Россия) (112 км)
Погода в Ныде (Ямало-Ненецкий АО, Россия) (130 км)
Погода в Полуе (Ямало-Ненецкий АО, Россия) (193 км)
Погода в Новом Уренгое (Ямало-Ненецкий АО, Россия) (200 км)
Погода в Новом Порте (Ямало-Ненецкий АО, Россия) (246 км)
Погода в Тарко-Сале (Ямало-Ненецкий АО, Россия) (248 км)
Погода в Юильске (Ханты-Мансийский АО, Россия) (248 км)
Погода в Белоярске (Ямало-Ненецкий АО, Россия) (257 км)
Погода в Уренгое (Ямало-Ненецкий АО, Россия) (267 км)

Пояснения к столбцам:

Ветер - указаны скорость ветра в м/с - средняя за 10 мин, порывы в срок и между сроками (в фигурных скобках) и направление, откуда дует ветер: С - северный, СВ - северо-восточный, В - восточный, ЮВ - юго-восточный, Ю - южный, ЮЗ - юго-западный, З - западный, СЗ - северо-западный.
Видимость - горизонтальная дальность видимости в метрах или километрах. При видимости от 1 до 10 км при отсутствии осадков обычно наблюдается дымка, при ухудшении видимости до 1 км и менее - туман. В сухую погоду видимость может ухудшаться дымом, пылью или мглою.
Явления - указаны атмосферные явления, наблюдавшиеся в срок или в последний час перед сроком; фигурными скобками обозначены явления, наблюдавшиеся между сроками (за 1-3 часа до срока); квадратными скобками обозначены град или гололедные отложения с указанием их диаметра в мм.
Облачность - указаны через наклонную черту общая и нижняя облачность в баллах и высота нижней границы облаков в метрах; квадратными скобками обозначены формы облаков: Ci - перистые, Cs - перисто-слоистые, Cc - перисто-кучевые, Ac - высококучевые, As - высокослоистые, Sc - слоисто-кучевые, Ns - слоисто-дождевые, Cu - кучевые, Cb - кучево-дождевые. Подробнее классификацию облаков см. в Атласе облаков (PDF).
T - Температура воздуха - температура, измеренная на высоте 2 м над землей.
Td - Температура точки росы - температура, при понижении до которой содержащийся в воздухе водяной пар достигнет насыщения.
f - Относительная влажность воздуха - влажноcть воздуха, измеренная на высоте 2 м над землей.
Te - Эффективная температура - температура, которую ощущает одетый по сезону человек в тени. Характеристика душности погоды. При расчете учитывается влияние влажности воздуха и скорости ветра на теплоощущения человека.
Tes - Эффективная температура на солнце - температура, которую ощущает человек, с поправкой на солнечный нагрев. Характеристика знойности погоды. Зависит от высоты солнца над горизонтом, облачности и скорости ветра. Ночью, в пасмурную погоду, а также при ветре 12 м/с и более поправка равна нулю.
P - Атмосферное давление - приведенное к уровню моря атмосферное давление.
Po - Атмосферное давление - измеренное на уровне метеостанции атмосферное давление.
Tmin - Минимальная температура - минимум температуры воздуха на высоте 2 м над землей.
Tmax - Максимальная температура - максимум температуры воздуха на высоте 2 м над землей.
R - Количество осадков - Количество выпавших осадков за период времени, мм. При наведении курсора мыши на число - период времени, за который выпало указанное количество осадков.
R24 - Количество осадков - Количество выпавших осадков за 24 часа, мм.
S - Снежный покров - Высота снежного покрова, см. При наведении курсора мыши на число - состояние снежного покрова и степень покрытия местности в баллах.